Weather History for Iliamna, AK

Change the Weather History Date:

Thursday, February 7, 2013

  Actual Average Record
Temperature  
Mean Temperature 24 °F -  
Max Temperature 33 °F 24 °F 47 °F (1947)
Min Temperature 14 °F 13 °F -31 °F (1953)
Degree Days  
Heating Degree Days 42    
Moisture  
Dew Point 29 °F    
Average Humidity 96    
Maximum Humidity 100    
Minimum Humidity 79    
Precipitation  
Precipitation 0.12 in - - ()
Snow  
Snow 0.00 in - - ()
Snow Depth 7.00 in    
Sea Level Pressure  
Sea Level Pressure 29.30 in    
Wind  
Wind Speed 12 mph (ESE)    
Max Wind Speed 21 mph    
Max Gust Speed 29 mph    
Visibility 3 miles    
Events Fog , Snow    
Averages and records for this station are not official NWS values.
T = Trace of Precipitation, MM = Missing Value Source: NWS Daily Summary

Daily Weather History Graph

Daily Weather History Graph

Search for Another Location

Airport:

Trip Planner

Search our weather history database for the weather conditions in past years. The results will help you decide how hot, cold, wet, or windy it might be!

Date:

Astronomy

Feb. 07, 2013 Rise Set
Actual Time 9:16 AM AKST 5:52 PM AKST
Civil Twilight 8:31 AM AKST 6:37 PM AKST
Nautical Twilight 7:41 AM AKST 7:26 PM AKST
Astronomical Twilight 6:54 AM AKST 8:14 PM AKST
Moon 7:29 AM AKST (2/7) 3:07 PM AKST (2/7)
Length of Visible Light 10h 06m
Length of Day
8h 36m
Waning Crescent, 8% of the Moon is Illuminated
Feb 7
Waning Crescent
Feb 9
New
Feb 17
First Quarter
Feb 25
Full
Mar 4
Last Quarter

Hourly Weather History & Observations

Time (AKST) Temp. Windchill Dew Point Humidity Pressure Visibility Wind Dir Wind Speed Gust Speed Precip Events Conditions
12:53 AM 19.9 °F 13.4 °F 16.0 °F 85% 29.48 in 10.0 mi North 4.6 mph - N/A   Overcast
1:53 AM 23.0 °F - 19.0 °F 85% 29.45 in 10.0 mi Calm Calm - N/A   Overcast
3:07 AM 28.4 °F 16.2 °F 26.6 °F 93% 29.42 in 2.5 mi East 17.3 mph - 0.00 in Snow Light Snow
3:19 AM 28.4 °F 16.6 °F 26.6 °F 93% 29.42 in 1.5 mi East 16.1 mph 25.3 mph 0.00 in Snow Light Snow
3:35 AM 28.4 °F 16.6 °F 26.6 °F 93% 29.41 in 1.2 mi East 16.1 mph 24.2 mph 0.00 in Snow Light Snow
3:53 AM 28.0 °F 16.1 °F 27.0 °F 96% 29.42 in 3.0 mi East 16.1 mph 25.3 mph 0.00 in Snow Light Snow
4:15 AM 28.4 °F 15.8 °F 26.6 °F 93% 29.39 in 3.0 mi East 18.4 mph - 0.00 in Snow Light Snow
4:22 AM 28.4 °F 15.1 °F 24.8 °F 86% 29.39 in 2.5 mi East 20.7 mph 26.5 mph 0.00 in Snow Light Snow
4:53 AM 28.0 °F 15.7 °F 27.0 °F 96% 29.39 in 1.8 mi East 17.3 mph 24.2 mph 0.00 in Snow Light Snow
5:22 AM 28.4 °F 15.8 °F 26.6 °F 93% 29.36 in 2.0 mi East 18.4 mph 26.5 mph 0.00 in Snow Light Snow
5:36 AM 28.4 °F 15.1 °F 26.6 °F 93% 29.35 in 3.0 mi East 20.7 mph 27.6 mph 0.00 in Snow Light Snow
5:53 AM 28.9 °F 16.5 °F 26.1 °F 89% 29.36 in 5.0 mi East 18.4 mph 27.6 mph 0.00 in Snow Light Snow
6:38 AM 28.4 °F 15.8 °F 26.6 °F 93% 29.33 in 1.8 mi East 18.4 mph 26.5 mph 0.00 in Snow Light Snow
6:53 AM 28.9 °F 16.5 °F 27.0 °F 92% 29.33 in 1.5 mi East 18.4 mph 28.8 mph 0.00 in Snow Light Snow
7:28 AM 28.4 °F 15.4 °F 28.4 °F 100% 29.30 in 1.2 mi East 19.6 mph 28.8 mph 0.00 in Snow Light Snow
7:53 AM 28.9 °F 16.5 °F 28.0 °F 96% 29.29 in 1.5 mi East 18.4 mph 25.3 mph 0.00 in Snow Light Snow
8:04 AM 28.4 °F 15.4 °F 28.4 °F 100% 29.27 in 2.5 mi East 19.6 mph 26.5 mph 0.00 in Snow Light Snow
8:16 AM 28.4 °F 15.8 °F 26.6 °F 93% 29.27 in 4.0 mi East 18.4 mph 27.6 mph 0.00 in Snow Light Snow
8:53 AM 30.0 °F 18.3 °F 27.0 °F 88% 29.27 in 10.0 mi East 17.3 mph 25.3 mph 0.00 in Snow Light Snow
9:25 AM 30.2 °F 18.1 °F 28.4 °F 93% 29.25 in 2.5 mi East 18.4 mph 26.5 mph 0.00 in Snow Light Snow
9:37 AM 30.2 °F 18.5 °F 28.4 °F 93% 29.25 in 1.5 mi East 17.3 mph 24.2 mph 0.00 in Snow Light Snow
9:49 AM 30.2 °F 18.9 °F 28.4 °F 93% 29.26 in 0.8 mi East 16.1 mph 23.0 mph 0.00 in Snow Light Snow
9:53 AM 30.0 °F 19.1 °F 28.9 °F 96% 29.27 in 0.5 mi East 15.0 mph 23.0 mph 0.00 in Fog , Snow Snow
10:44 AM 30.2 °F 19.3 °F 30.2 °F 100% 29.26 in 0.5 mi East 15.0 mph 21.9 mph 0.02 in Fog , Snow Snow
10:53 AM 30.0 °F 19.5 °F 30.0 °F 100% 29.27 in 0.5 mi East 13.8 mph - 0.03 in Fog , Snow Snow
11:53 AM 30.0 °F 19.5 °F 30.0 °F 100% 29.26 in 0.2 mi East 13.8 mph - 0.03 in Fog , Snow Snow
12:53 PM 30.9 °F 21.7 °F 30.9 °F 100% 29.24 in 1.0 mi East 11.5 mph 18.4 mph 0.03 in Snow Light Snow
12:59 PM 30.2 °F 21.3 °F 30.2 °F 100% 29.23 in 1.2 mi East 10.4 mph - 0.00 in Snow Light Snow
1:09 PM 30.2 °F 20.8 °F 30.2 °F 100% 29.22 in 6.0 mi East 11.5 mph - 0.00 in Snow Light Snow
1:32 PM 32.0 °F 23.6 °F 30.2 °F 93% 29.22 in 10.0 mi East 10.4 mph - 0.00 in   Overcast
1:37 PM 32.0 °F 24.2 °F 30.2 °F 93% 29.21 in 10.0 mi East 9.2 mph - 0.00 in Snow Light Snow
1:53 PM 32.0 °F 23.0 °F 30.0 °F 92% 29.23 in 10.0 mi East 11.5 mph - 0.00 in   Overcast
2:53 PM 33.1 °F 26.1 °F 30.0 °F 89% 29.24 in 10.0 mi SE 8.1 mph - N/A   Overcast
3:53 PM 32.0 °F 24.8 °F 28.9 °F 88% 29.24 in 8.0 mi SSE 8.1 mph - 0.00 in Snow Light Snow
4:22 PM 32.0 °F 23.0 °F 30.2 °F 93% 29.23 in 3.0 mi SSE 11.5 mph - 0.00 in Snow Light Snow
4:27 PM 30.2 °F 20.8 °F 30.2 °F 100% 29.24 in 2.0 mi South 11.5 mph - 0.00 in Snow Light Snow
4:31 PM 30.2 °F 21.3 °F 30.2 °F 100% 29.24 in 1.0 mi SSE 10.4 mph - 0.01 in Snow Light Snow
4:39 PM 30.2 °F 20.8 °F 30.2 °F 100% 29.24 in 0.8 mi SSE 11.5 mph - 0.02 in Snow Light Snow
4:46 PM 30.2 °F 21.9 °F 30.2 °F 100% 29.24 in 0.5 mi SSE 9.2 mph - 0.04 in Fog , Snow Light Snow
4:53 PM 30.9 °F 22.2 °F 30.9 °F 100% 29.25 in 0.5 mi SE 10.4 mph - 0.05 in Fog , Snow Snow
4:56 PM 30.2 °F 21.9 °F 30.2 °F 100% 29.24 in 0.2 mi SE 9.2 mph - 0.01 in Fog , Snow Snow
5:04 PM 30.2 °F 22.6 °F 30.2 °F 100% 29.24 in 0.8 mi SE 8.1 mph - 0.02 in Snow Light Snow
5:06 PM 30.2 °F 23.4 °F 30.2 °F 100% 29.24 in 1.0 mi SE 6.9 mph - 0.02 in Snow Light Snow
5:09 PM 30.2 °F 23.4 °F 30.2 °F 100% 29.25 in 2.0 mi SE 6.9 mph - 0.02 in Snow Light Snow
5:15 PM 30.2 °F 23.4 °F 30.2 °F 100% 29.25 in 3.0 mi ESE 6.9 mph - 0.02 in Snow Light Snow
5:37 PM 30.2 °F 20.8 °F 30.2 °F 100% 29.25 in 3.0 mi SE 11.5 mph - 0.02 in Snow Light Snow
5:40 PM 30.2 °F 20.8 °F 30.2 °F 100% 29.25 in 2.0 mi SE 11.5 mph - 0.03 in Snow Light Snow
5:42 PM 30.2 °F 20.2 °F 30.2 °F 100% 29.25 in 1.0 mi SE 12.7 mph - 0.03 in Snow Light Snow
5:44 PM 30.2 °F 20.8 °F 30.2 °F 100% 29.25 in 0.8 mi SE 11.5 mph - 0.03 in Snow Light Snow
5:45 PM 30.2 °F 20.8 °F 30.2 °F 100% 29.25 in 0.5 mi SE 11.5 mph - 0.03 in Fog , Snow Light Snow
5:53 PM 30.9 °F 22.2 °F 30.9 °F 100% 29.26 in 0.8 mi ESE 10.4 mph - 0.03 in Snow Light Snow
5:55 PM 30.2 °F 21.9 °F 30.2 °F 100% 29.25 in 1.0 mi ESE 9.2 mph - 0.00 in Snow Light Snow
5:59 PM 30.2 °F 21.9 °F 30.2 °F 100% 29.25 in 2.0 mi ESE 9.2 mph 17.3 mph 0.00 in Snow Light Snow
6:01 PM 30.2 °F 21.9 °F 30.2 °F 100% 29.25 in 3.0 mi ESE 9.2 mph - 0.00 in Snow Light Snow
6:03 PM 30.2 °F 21.9 °F 30.2 °F 100% 29.25 in 5.0 mi East 9.2 mph - 0.00 in Snow Light Snow
6:53 PM 32.0 °F 23.6 °F 30.0 °F 92% 29.27 in 10.0 mi ESE 10.4 mph 20.7 mph 0.00 in   Overcast
7:19 PM 30.2 °F 21.3 °F 30.2 °F 100% 29.27 in 2.5 mi SSE 10.4 mph - N/A   Overcast
7:27 PM 30.2 °F 20.8 °F 30.2 °F 100% 29.28 in 1.0 mi SE 11.5 mph - 0.01 in Snow Light Snow
7:37 PM 30.2 °F 20.2 °F 30.2 °F 100% 29.28 in 2.0 mi SSE 12.7 mph 19.6 mph 0.01 in Snow Light Snow
7:44 PM 30.2 °F 20.8 °F 30.2 °F 100% 29.29 in 1.0 mi SSE 11.5 mph - 0.01 in Snow Light Snow
7:53 PM 30.9 °F 21.2 °F 30.0 °F 96% 29.30 in 1.0 mi SSE 12.7 mph - 0.01 in Snow Light Snow
7:55 PM 30.2 °F 19.3 °F 30.2 °F 100% 29.29 in 2.0 mi SSE 15.0 mph 23.0 mph 0.00 in Snow Light Snow
8:08 PM 30.2 °F 20.8 °F 30.2 °F 100% 29.29 in 1.0 mi SSE 11.5 mph 20.7 mph 0.00 in Snow Light Snow
8:53 PM 30.9 °F 20.2 °F 30.9 °F 100% 29.32 in 2.0 mi SSE 15.0 mph - 0.01 in Snow Light Snow
9:53 PM 30.9 °F 20.7 °F 30.0 °F 96% 29.34 in 10.0 mi SE 13.8 mph - 0.00 in   Overcast
10:06 PM 30.2 °F 20.8 °F 30.2 °F 100% 29.33 in 9.0 mi SE 11.5 mph 20.7 mph 0.00 in Snow Light Snow
10:20 PM 30.2 °F 20.2 °F 30.2 °F 100% 29.34 in 3.0 mi SSE 12.7 mph - 0.00 in Snow Light Snow
10:26 PM 30.2 °F 21.3 °F 30.2 °F 100% 29.34 in 1.8 mi SE 10.4 mph - 0.00 in Snow Light Snow
10:38 PM 30.2 °F 20.2 °F 30.2 °F 100% 29.35 in 3.0 mi SE 12.7 mph - 0.01 in Snow Light Snow
10:53 PM 30.9 °F 22.2 °F 30.9 °F 100% 29.37 in 2.5 mi SE 10.4 mph - 0.01 in Snow Light Snow
11:02 PM 30.2 °F 21.3 °F 30.2 °F 100% 29.36 in 1.2 mi SSE 10.4 mph - 0.01 in Snow Light Snow
11:11 PM 30.2 °F 20.8 °F 30.2 °F 100% 29.36 in 1.0 mi SE 11.5 mph - 0.01 in Snow Light Snow
11:22 PM 30.2 °F 22.6 °F 30.2 °F 100% 29.36 in 2.0 mi SE 8.1 mph - 0.01 in Snow Light Snow
11:31 PM 30.2 °F 24.3 °F 30.2 °F 100% 29.37 in 8.0 mi ESE 5.8 mph - 0.01 in Snow Light Snow
11:53 PM 30.9 °F - 30.9 °F 100% 29.39 in 9.0 mi Calm Calm - 0.01 in   Overcast